Weather History for Bacau, Romania

Change the Weather History Date:

Wednesday, February 6, 2013

  Actual Average Record
Temperature  
Mean Temperature 32 °F -  
Max Temperature 35 °F - - ()
Min Temperature 29 °F - - ()
Degree Days  
Heating Degree Days 33    
Moisture  
Dew Point 33 °F    
Average Humidity 96    
Maximum Humidity 100    
Minimum Humidity 86    
Precipitation  
Precipitation 0.00 in - - ()
Sea Level Pressure  
Sea Level Pressure 29.67 in    
Wind  
Wind Speed 10 mph ()    
Max Wind Speed 22 mph    
Max Gust Speed -    
Visibility 2.3 miles    
Events Fog    
T = Trace of Precipitation, MM = Missing Value Source: Averaged Metar Reports

Daily Weather History Graph

Daily Weather History Graph

Search for Another Location

Airport:

Trip Planner

Search our weather history database for the weather conditions in past years. The results will help you decide how hot, cold, wet, or windy it might be!

Date:

Astronomy

Feb. 06, 2013 Rise Set
Actual Time 7:29 AM EET 5:24 PM EET
Civil Twilight 6:57 AM EET 5:55 PM EET
Nautical Twilight 6:21 AM EET 6:31 PM EET
Astronomical Twilight 5:46 AM EET 7:06 PM EET
Moon 4:00 AM EET (2/6) 1:14 PM EET (2/6)
Length of Visible Light 10h 58m
Length of Day
9h 54m
Waning Crescent, 20% of the Moon is Illuminated
Feb 6
Waning Crescent
Feb 10
New
Feb 17
First Quarter
Feb 25
Full
Mar 4
Last Quarter

Hourly Weather History & Observations

Time (EET) Temp. Windchill Dew Point Humidity Pressure Visibility Wind Dir Wind Speed Gust Speed Precip Events Conditions
12:00 AM 32 °F - 31 °F 95% 29.80 in 6 mi SSE 8.9 mph - -   Partly Cloudy
12:00 AM 32.0 °F 21.2 °F 32.0 °F 100% 29.77 in 3.1 mi South 16.1 mph - N/A   Scattered Clouds
1:00 AM 32 °F - 30 °F 91% 29.79 in 6 mi South 4.5 mph - -   Partly Cloudy
1:00 AM 32.0 °F 20.5 °F 32.0 °F 100% 29.74 in 2.5 mi South 18.4 mph - N/A   Mist
2:00 AM 30 °F - 29 °F 97% 29.75 in 6 mi SSE 6.7 mph - -   Mostly Cloudy
2:00 AM 33.8 °F 24.3 °F 32.0 °F 93% 29.71 in 5.0 mi South 13.8 mph - N/A   Unknown
3:00 AM 31 °F - 29 °F 89% 29.75 in - SSE 6.7 mph - -  
3:00 AM 33.8 °F 22.5 °F 30.2 °F 87% 29.71 in - South 19.6 mph - N/A   Clear
4:00 AM 31 °F - 29 °F 87% 29.74 in - South 4.5 mph - -  
4:00 AM 33.8 °F 23.5 °F 30.2 °F 87% 29.68 in - South 16.1 mph - N/A   Clear
5:00 AM 31 °F - 29 °F 88% 29.73 in - SSE 6.7 mph - -  
5:00 AM 33.8 °F 21.9 °F 32.0 °F 93% 29.68 in - South 21.9 mph - N/A   Clear
5:30 AM 33.8 °F 22.5 °F 32.0 °F 93% 29.68 in - South 19.6 mph - N/A   Clear
6:00 AM 32 °F - 30 °F 89% 29.72 in - SSE 8.9 mph - -  
6:00 AM 33.8 °F 22.8 °F 32.0 °F 93% 29.68 in - South 18.4 mph - N/A   Clear
6:30 AM 33.8 °F 22.5 °F 32.0 °F 93% 29.68 in - South 19.6 mph - N/A   Clear
7:00 AM 31 °F - 30 °F 93% 29.72 in 6 mi SSE 8.9 mph - -   Overcast
7:00 AM 32.0 °F 20.5 °F 32.0 °F 100% 29.68 in - South 18.4 mph - N/A   Clear
7:30 AM 32.0 °F 20.5 °F 32.0 °F 100% 29.68 in 3.1 mi South 18.4 mph - N/A   Scattered Clouds
8:00 AM 31 °F - 30 °F 93% 29.72 in 6 mi SSE 8.9 mph - -   Mostly Cloudy
8:00 AM 32.0 °F 20.5 °F 32.0 °F 100% 29.68 in - South 18.4 mph - N/A   Scattered Clouds
8:30 AM 32.0 °F 21.2 °F 32.0 °F 100% 29.68 in 1.0 mi South 16.1 mph - N/A   Overcast
9:00 AM 30 °F - 30 °F 100% 29.73 in 2 mi SSE 6.7 mph - -   Mist
9:00 AM 32.0 °F 22.1 °F 32.0 °F 100% 29.68 in 0.5 mi South 13.8 mph - N/A Fog Fog
9:30 AM 32.0 °F 22.1 °F 32.0 °F 100% 29.68 in 0.9 mi South 13.8 mph - N/A Fog Patches of Fog
10:00 AM 31 °F - 31 °F 100% 29.73 in 2 mi South 6.7 mph - -   Mist
10:00 AM 33.8 °F 24.3 °F 33.8 °F 100% 29.68 in 1.9 mi South 13.8 mph - N/A   Overcast
10:30 AM 33.8 °F 23.5 °F 33.8 °F 100% 29.68 in 1.4 mi South 16.1 mph - N/A   Overcast
11:00 AM 32 °F - 32 °F 98% 29.71 in 2 mi SSE 6.7 mph - -   Mist
11:00 AM 33.8 °F 23.5 °F 33.8 °F 100% 29.68 in 0.9 mi South 16.1 mph - N/A Fog Fog
11:30 AM 33.8 °F 24.3 °F 33.8 °F 100% 29.65 in - South 13.8 mph - N/A Fog Fog
12:00 PM 32 °F - 32 °F 100% 29.70 in 2 mi South 6.7 mph - -   Mist
12:00 PM 33.8 °F 23.5 °F 33.8 °F 100% 29.65 in 1.1 mi South 16.1 mph - N/A   Overcast
12:30 PM 33.8 °F 24.3 °F 33.8 °F 100% 29.65 in - South 13.8 mph - N/A Fog Fog
1:00 PM 33 °F - 32 °F 94% 29.68 in 2 mi SSE 6.7 mph - -   Mist
1:00 PM 33.8 °F 25.3 °F 33.8 °F 100% 29.65 in 1.9 mi South 11.5 mph - N/A   Overcast
1:30 PM 33.8 °F 25.3 °F 33.8 °F 100% 29.62 in 2.2 mi South 11.5 mph - N/A   Mostly Cloudy
2:00 PM 35 °F - 32 °F 86% 29.66 in 2 mi SSE 6.7 mph - -   Mist
2:00 PM 33.8 °F 24.3 °F 33.8 °F 100% 29.62 in - South 13.8 mph - N/A   Mostly Cloudy
2:30 PM 35.6 °F 28.6 °F 33.8 °F 93% 29.62 in - SSE 9.2 mph - N/A   Mostly Cloudy
3:00 PM 35 °F - 32 °F 86% 29.66 in 2 mi South 4.5 mph - -   Mist
3:00 PM 35.6 °F 28.6 °F 33.8 °F 93% 29.62 in - SSE 9.2 mph - N/A   Overcast
3:30 PM 35.6 °F 26.6 °F 33.8 °F 93% 29.62 in - South 13.8 mph - N/A   Mostly Cloudy
4:00 PM 34 °F - 33 °F 92% 29.66 in 2 mi South 6.7 mph - -   Mist
4:00 PM 35.6 °F 26.6 °F 33.8 °F 93% 29.62 in 1.4 mi South 13.8 mph - N/A   Mostly Cloudy
4:30 PM 35.6 °F 26.6 °F 33.8 °F 93% 29.62 in 1.1 mi South 13.8 mph - N/A   Overcast
5:00 PM 33 °F - 33 °F 97% 29.65 in 2 mi SSE 4.5 mph - -   Mist
5:30 PM 35.6 °F 27.5 °F 33.8 °F 93% 29.62 in 0.9 mi South 11.5 mph - N/A   Mostly Cloudy
6:00 PM 35.6 °F 27.5 °F 33.8 °F 93% 29.62 in 0.3 mi South 11.5 mph - N/A Fog Fog
6:30 PM 35.6 °F 28.6 °F 35.6 °F 100% 29.62 in 0.9 mi South 9.2 mph - N/A   Mist
7:00 PM 33 °F - 33 °F 99% 29.66 in 2 mi SSE 4.5 mph - -   Mist
7:00 PM 35.6 °F 29.9 °F 35.6 °F 100% 29.62 in 1.6 mi South 6.9 mph - N/A   Overcast
7:30 PM 35.6 °F 31.7 °F 35.6 °F 100% 29.62 in 1.7 mi South 4.6 mph - N/A   Overcast
8:00 PM 33 °F - 33 °F 99% 29.66 in 2 mi SSE 2.2 mph - -   Mist
8:00 PM 35.6 °F 29.9 °F 35.6 °F 100% 29.62 in - South 6.9 mph - N/A   Overcast
8:30 PM 35.6 °F 31.7 °F 33.8 °F 93% 29.62 in 2.2 mi SSW 4.6 mph - N/A   Overcast
9:00 PM 33 °F - 33 °F 99% 29.66 in 2 mi Calm Calm - -   Mist
9:00 PM 35.6 °F - 35.6 °F 100% 29.62 in 1.7 mi SSW 2.3 mph - N/A   Overcast
10:00 PM 34 °F - 33 °F 97% 29.65 in 2 mi South 2.2 mph - -   Mist
10:00 PM 35.6 °F 29.9 °F 35.6 °F 100% 29.62 in 0.7 mi South 6.9 mph - N/A   Overcast
11:00 PM 34 °F - 34 °F 98% 29.65 in 2 mi SSE 2.2 mph - -   Mist
11:00 PM 35.6 °F 29.9 °F 35.6 °F 100% 29.62 in - South 6.9 mph - N/A Fog Fog